METEOR-M2 3

Last updated on Sun Oct 19 2025 00:02:22 GMT+0000 (Coordinated Universal Time)

1 57166U 23091A 25291.32386970 .00000053 00000+0 42074-4 0 9995 2 57166 98.6462 345.8072 0004631 141.7841 218.3667 14.24016025120091
UTC large
Height (km)
Speed (km/s)
/
Latitude / Longitude
Inclination (degrees)
Orbital Period (minutes)
Azimuth
Elevation
Range (km)
Doppler Factor

Next 0 passes for location: London (51.5072 / 0.1276)

Sorry there are no passes over London.